Location: Unspecified
(0.0000°N, 0.0000°E)
Time: 17:18:41
(UTC+00:00)

ISS - Visible Passes

Search period start: 20 June 2019 00:00
Search period end: 30 June 2019 00:00
Orbit: 408 x 419 km, 51.6° (Epoch: 21 June)

Date Brightness Start Highest point End Pass type
(mag) Time Alt. Az. Time Alt. Az. Time Alt. Az.
20 Jun -2.1 04:40:56 20° SSE 04:42:25 28° SE 04:45:18 10° ENE visible
21 Jun -0.6 03:54:04 11° ESE 03:54:04 11° ESE 03:54:25 10° E visible
21 Jun -2.1 05:26:57 10° WSW 05:29:27 20° NW 05:31:57 10° N visible
22 Jun -3.5 04:40:04 50° NW 04:40:04 50° NW 04:43:14 10° NNE visible
23 Jun -0.8 03:53:05 16° NE 03:53:05 16° NE 03:53:50 10° NE visible
